TimeCST,TemperatureF,Dew PointF,Humidity,Sea Level PressureIn,VisibilityMPH,Wind Direction,Wind SpeedMPH,Gust SpeedMPH,PrecipitationIn,Events,Conditions,WindDirDegrees,DateUTC
12:52 AM,18.0,8.1,65,30.23,10.0,North,16.1,25.3,N/A,,Overcast,350,2012-12-26 06:52:00
1:52 AM,17.1,8.1,68,30.24,10.0,NNW,19.6,26.5,N/A,,Overcast,340,2012-12-26 07:52:00
2:52 AM,15.1,7.0,70,30.25,10.0,NNW,16.1,24.2,N/A,,Overcast,340,2012-12-26 08:52:00
3:52 AM,14.0,7.0,74,30.24,10.0,North,12.7,-,N/A,,Mostly Cloudy,350,2012-12-26 09:52:00
4:01 AM,14.0,6.8,73,30.21,10.0,North,16.1,20.7,N/A,,Scattered Clouds,350,2012-12-26 10:01:00
4:52 AM,12.9,7.0,77,30.25,10.0,NNW,12.7,19.6,N/A,,Clear,340,2012-12-26 10:52:00
5:52 AM,12.9,7.0,77,30.24,10.0,North,9.2,-,N/A,,Clear,350,2012-12-26 11:52:00
6:52 AM,12.0,7.0,80,30.24,10.0,North,6.9,-,N/A,,Clear,360,2012-12-26 12:52:00
7:52 AM,12.0,7.0,80,30.25,10.0,North,5.8,-,N/A,,Clear,360,2012-12-26 13:52:00
8:52 AM,15.1,8.1,74,30.30,10.0,NNW,10.4,-,N/A,,Clear,340,2012-12-26 14:52:00
10:52 AM,21.9,10.0,60,30.30,10.0,WNW,6.9,-,N/A,,Clear,300,2012-12-26 16:52:00
11:52 AM,26.1,12.0,55,30.28,10.0,NNW,8.1,-,N/A,,Clear,340,2012-12-26 17:52:00
12:52 PM,28.0,12.0,51,30.25,10.0,Variable,5.8,-,N/A,,Clear,0,2012-12-26 18:52:00
1:52 PM,30.0,14.0,51,30.22,10.0,Variable,3.5,-,N/A,,Clear,0,2012-12-26 19:52:00
3:52 PM,32.0,16.0,52,30.22,10.0,Calm,Calm,-,N/A,,Clear,0,2012-12-26 21:52:00
4:52 PM,30.0,15.1,54,30.23,10.0,Calm,Calm,-,N/A,,Clear,0,2012-12-26 22:52:00
5:52 PM,26.1,14.0,60,30.21,10.0,Calm,Calm,-,N/A,,Clear,0,2012-12-26 23:52:00
6:52 PM,25.0,14.0,63,30.22,10.0,Calm,Calm,-,N/A,,Clear,0,2012-12-27 00:52:00
7:52 PM,24.1,14.0,65,30.22,10.0,Calm,Calm,-,N/A,,Clear,0,2012-12-27 01:52:00
8:52 PM,19.9,12.9,74,30.20,10.0,Calm,Calm,-,N/A,,Clear,0,2012-12-27 02:52:00
9:52 PM,19.9,12.9,74,30.19,10.0,Calm,Calm,-,N/A,,Clear,0,2012-12-27 03:52:00
10:52 PM,21.0,15.1,78,30.19,10.0,Calm,Calm,-,N/A,,Clear,0,2012-12-27 04:52:00
11:52 PM,24.1,16.0,71,30.17,10.0,Calm,Calm,-,N/A,,Clear,0,2012-12-27 05:52:00